User: anonymous   Login
Location: Unspecified
(0.0000°N, 0.0000°E)
Time: 06:54:45
(UTC+00:00)
Language:

Vanguard 2 - Orbit

View from above orbital plane
View from above orbital plane
View from above satellite
View from above satellite

Ground track
Ground track

The orbit data is extracted from the following two-line orbital elements,

1 00011U 59001A   15085.80885516  .00000551  00000-0  27635-3 0  9994
2 00011 032.8806 021.9116 1471859 275.7187 067.7974 11.84821453390046
Epoch (UTC): 26 March 2015 19:24:45
Eccentricity: 0.1471859
inclination: 32.8806°
perigee height: 553 km
apogee height: 2946 km
right ascension of ascending node: 21.9116°
argument of perigee: 275.7187°
revolutions per day: 11.84821453
mean anomaly at epoch: 67.7974°
orbit number at epoch: 39004

The dashed part of the orbit path shows where the satellite is in the earth's shadow,  

DLR